{"data":{"norad_id":64042,"intl_designator":"2025-102W","name":"STARLINK-34049","alt_names":[],"object_type":"PAYLOAD","status":"ACTIVE","operator":null,"country":"US","launch_date":"2025-05-16","launch_site_code":"AFWTR","launch_vehicle":null,"mission":null,"orbit_class":"UNKNOWN","rcs_meters":null,"size_class":null,"mass_kg":null,"dimensions":null,"purposes":["comms"],"wikipedia_slug":null,"has_3d_model":false,"image_url":null,"decayed_at":null,"tle_current":{"epoch":"2026-05-25T02:26:51.629280Z","epoch_age_seconds":60120,"freshness":"FRESH","line1":"1 64042U 25102W   26145.10198645  .00005535  00000+0  47115-3 0  9996","line2":"2 64042  70.0004 281.9647 0003219 269.0938  90.9852 14.98340192 57396","mean_motion":14.98340192,"eccentricity":0.0003219,"inclination_deg":70.0004,"raan_deg":281.9647,"arg_perigee_deg":269.0938,"mean_anomaly_deg":90.9852,"bstar":0.00047115,"rev_number":5739,"period_min":96.106345387283,"perigee_km":569.78711625778,"apogee_km":574.26163014985,"semimajor_km":6950.1613732038,"source":"CELESTRAK","updated_at":"2026-05-25T13:38:20.254643Z"}}}